FW2254 Weather Reports


Display with metric or nautical units.
time (UTC)temp
F
wind
direction
speed
MPH
gust
MPH
rain 1hr
in
rain 24hr
in
rain mn
in
humidity
%
barometer
mb
20190222121516 45 61 0.0 3.0 0.00 0.04 0.00 96 1002.3
20190222120014 45 24 0.0 3.0 0.00 0.04 0.00 96 1002.5
20190222114512 44 9 1.0 3.0 0.00 0.04 0.00 96 1002.7
20190222113020 44 147 1.0 4.0 0.00 0.04 0.00 96 1002.0
20190222111512 44 76 0.0 4.0 0.00 0.04 0.00 96 1001.8
20190222110014 44 117 2.0 5.0 0.00 0.04 0.00 96 1001.4
20190222104557 44 60 0.0 4.0 0.00 0.04 0.00 96 1001.9
20190222103019 44 109 1.0 4.0 0.00 0.04 0.00 96 1001.8
20190222101509 44 61 1.0 6.0 0.00 0.04 0.00 96 1001.5
20190222100008 44 160 0.0 3.0 0.00 0.04 0.00 96 1001.7
20190222094517 44 81 1.0 6.0 0.00 0.04 0.00 96 1002.7
20190222093006 45 15 1.0 6.0 0.00 0.04 0.00 96 1001.4
20190222091734 45 88 1.0 3.0 0.00 0.04 0.00 95 1002.0
20190222090219 45 97 1.0 5.0 0.00 0.04 0.00 95 1002.2
20190222084704 45 131 1.0 6.0 0.00 0.04 0.00 95 1003.0
20190222083204 45 262 0.0 2.0 0.00 0.04 0.00 95 1003.3
20190222081730 45 173 0.0 0.0 0.00 0.04 0.00 94 1003.3
20190222080225 45 86 0.0 3.0 0.00 0.04 0.00 94 1003.2
20190222074713 45 288 1.0 5.0 0.00 0.04 0.00 94 1003.8
20190222073202 45 232 1.0 13.0 0.00 0.04 0.00 94 1002.8
20190222071647 45 99 2.0 5.0 0.00 0.04 0.00 95 1002.2
20190222070138 45 57 3.0 9.0 0.00 0.04 0.00 95 1002.8
20190222064630 45 84 0.0 7.0 0.00 0.04 0.00 95 1002.9
20190222063137 45 70 1.0 7.0 0.00 0.04 0.00 95 1002.4
20190222061622 45 90 2.0 8.0 0.00 0.04 0.00 95 1002.2
20190222060134 45 88 4.0 9.0 0.00 0.04 0.04 95 1002.5
20190222054735 45 51 1.0 10.0 0.00 0.04 0.04 95 1002.6
20190222053051 45 65 2.0 7.0 0.00 0.04 0.04 95 1002.5
20190222051633 45 28 2.0 6.0 0.00 0.04 0.04 95 1002.8
20190222050123 45 5 4.0 8.0 0.00 0.04 0.04 95 1003.2
20190222044623 45 360 1.0 5.0 0.00 0.04 0.04 95 1003.2
20190222043114 45 36 0.0 3.0 0.00 0.04 0.04 95 1003.5
20190222041633 45 84 1.0 4.0 0.00 0.04 0.04 94 1003.3
20190222040140 45 92 1.0 4.0 0.00 0.04 0.04 94 1002.8
20190222034653 45 42 1.0 6.0 0.00 0.04 0.04 93 1002.9
20190222033219 45 155 2.0 6.0 0.00 0.04 0.04 92 1002.9
20190222031600 45 42 1.0 7.0 0.00 0.04 0.04 92 1002.6
20190222030123 45 14 2.0 7.0 0.00 0.04 0.04 91 1002.4
20190222024631 45 109 1.0 5.0 0.00 0.04 0.04 91 1002.2
20190222023044 45 65 1.0 6.0 0.00 0.04 0.04 90 1002.3
20190222021620 45 56 3.0 8.0 0.00 0.04 0.04 89 1002.3
20190222020051 45 76 2.0 7.0 0.00 0.04 0.04 90 1001.9
20190222014603 45 59 1.0 4.0 0.00 0.04 0.04 90 1001.7
20190222013054 45 56 1.0 7.0 0.00 0.04 0.04 89 1001.9
20190222011542 46 102 1.0 8.0 0.00 0.04 0.04 89 1001.9
20190222010124 46 90 1.0 8.0 0.00 0.04 0.04 89 1002.1
20190222004643 46 95 3.0 7.0 0.00 0.04 0.04 89 1001.5
20190222003137 46 131 3.0 13.0 0.00 0.04 0.04 89 1001.6
20190222001539 46 28 1.0 10.0 0.00 0.04 0.04 90 1001.3
20190222000112 46 44 2.0 6.0 0.00 0.04 0.04 91 1001.4
20190221233057 47 127 2.0 7.0 0.00 0.04 0.04 89 1001.2
20190221231620 47 84 2.0 9.0 0.00 0.04 0.04 89 1001.4
20190221230041 47 87 5.0 10.0 0.00 0.04 0.04 88 1001.3
20190221224650 47 117 3.0 9.0 0.00 0.04 0.04 88 1001.3
20190221223030 47 82 2.0 6.0 0.00 0.04 0.04 88 1001.8
20190221221602 47 121 1.0 6.0 0.00 0.04 0.04 87 1002.0
20190221220046 47 355 1.0 5.0 0.00 0.04 0.04 87 1001.8
20190221214615 48 5 3.0 8.0 0.00 0.04 0.04 87 1001.6
20190221213034 48 10 1.0 7.0 0.00 0.04 0.04 87 1001.6
20190221211545 48 63 1.0 6.0 0.00 0.04 0.04 86 1001.5
20190221210105 48 74 2.0 5.0 0.00 0.04 0.04 87 1002.1
20190221204515 48 65 1.0 9.0 0.00 0.04 0.04 87 1001.9
20190221203032 47 340 1.0 8.0 0.00 0.04 0.04 87 1001.5
20190221201524 47 47 1.0 8.0 0.00 0.04 0.04 88 1001.4
20190221200022 48 84 1.0 6.0 0.00 0.04 0.04 88 1001.6
20190221194514 47 123 1.0 5.0 0.01 0.04 0.04 90 1002.1
20190221193009 46 31 0.0 5.0 0.01 0.04 0.04 91 1002.8
20190221191505 46 315 2.0 5.0 0.01 0.04 0.04 90 1002.6
20190221190003 46 360 1.0 6.0 0.01 0.04 0.04 90 1003.1
20190221184729 46 15 2.0 5.0 0.00 0.03 0.03 91 1003.5
20190221183129 46 351 0.0 5.0 0.00 0.03 0.03 93 1003.8
20190221181656 45 360 2.0 5.0 0.00 0.03 0.03 92 1003.8
20190221180146 45 342 1.0 3.0 0.00 0.03 0.03 93 1004.1
20190221174737 45 17 0.0 3.0 0.00 0.03 0.03 93 1004.2
20190221173341 45 355 1.0 4.0 0.00 0.03 0.03 92 1003.7
20190221171706 45 34 1.0 4.0 0.00 0.03 0.03 93 1003.2
20190221164643 45 61 0.0 3.0 0.01 0.03 0.03 94 1003.9
20190221163120 44 347 1.0 3.0 0.01 0.03 0.03 93 1004.2
20190221161643 44 58 1.0 3.0 0.01 0.03 0.03 92 1004.1
20190221160112 44 42 1.0 5.0 0.00 0.02 0.02 92 1003.9
20190221154609 44 61 1.0 3.0 0.00 0.02 0.02 93 1002.7
20190221153109 43 73 0.0 5.0 0.00 0.02 0.02 94 1002.8
20190221151808 43 225 0.0 5.0 0.00 0.02 0.02 92 1003.6
20190221150120 43 96 0.0 4.0 0.00 0.02 0.02 93 1003.5
20190221144621 42 76 1.0 3.0 0.00 0.02 0.02 95 1002.2
20190221143124 42 77 1.0 3.0 0.00 0.02 0.02 96 1003.0
20190221141621 42 9 0.0 2.0 0.02 0.02 0.02 96 1002.9
20190221140115 42 330 0.0 2.0 0.02 0.02 0.02 95 1003.5
20190221134540 42 91 0.0 3.0 0.02 0.02 0.02 94 1003.7
20190221133045 42 338 1.0 4.0 0.02 0.02 0.02 95 1003.3
20190221131604 42 166 3.0 5.0 0.00 0.00 0.00 94 1004.8
20190221130049 42 77 0.0 1.0 0.00 0.00 0.00 92 1002.8
20190221124555 41 94 1.0 3.0 0.00 0.00 0.00 94 1002.5
20190221123056 40 88 0.0 3.0 0.00 0.00 0.00 94 1001.9